Tracking 22780 objects as of 11-Apr-2021
HD Live streaming from Space Station
objects crossing your sky now

TITAN 3C TRANSTAGE DEB

Track TITAN 3C TRANSTAGE DEB now!


NORAD ID: 43455
Int'l Code: 1969-013N
Perigee: 37,365.5 km
Apogee: 37,861.6 km
Inclination: 4.5 °
Period: 1,530.1 minutes
Semi major axis: 43984 km
RCS: Unknown
Launch date: February 9, 1969
Source: United States (US)
Launch site: AIR FORCE EASTERN TEST RANGE (AFETR)

Note: This is SATELLITE DEBRIS
aabbcc
Your satellite tracking list
Your tracking list is empty




NASA's NSSDC Master Catalog

Two Line Element Set (TLE):
1 43455U 69013N   21096.90199306 -.00000118  00000-0  00000+0 0  9995
2 43455   4.5271 271.1331 0056391 207.9098 151.4768  0.94113657 10491
Source of the keplerian elements: AFSPC